Time,TemperatureF,DewpointF,PressureIn,WindDirection,WindDirectionDegrees,WindSpeedMPH,WindSpeedGustMPH,Humidity,HourlyPrecipIn,Conditions,Clouds,dailyrainin,SoftwareType,DateUTC
2013-02-28 00:05:00,30.4,26.4,29.88,North,5,6.0,11.0,85,0.00,,,0.00,Wunderground v.1.15,2013-02-28 06:05:00,
2013-02-28 00:11:00,30.5,26.2,29.89,NNE,13,7.0,11.0,84,0.00,,,0.00,Wunderground v.1.15,2013-02-28 06:11:00,
2013-02-28 00:17:00,30.5,26.2,29.89,NNW,327,7.0,10.0,84,0.00,,,0.00,Wunderground v.1.15,2013-02-28 06:17:00,
2013-02-28 00:22:00,30.6,26.3,29.89,NNE,29,8.0,8.0,84,0.00,,,0.00,Wunderground v.1.15,2013-02-28 06:22:00,
2013-02-28 00:27:00,30.6,26.1,29.89,NNE,28,8.0,14.0,83,0.00,,,0.00,Wunderground v.1.15,2013-02-28 06:27:00,
2013-02-28 00:33:00,30.6,26.1,29.89,NNE,15,8.0,9.0,83,0.00,,,0.00,Wunderground v.1.15,2013-02-28 06:33:00,
2013-02-28 00:39:00,30.6,26.1,29.89,North,11,9.0,14.0,83,0.00,,,0.00,Wunderground v.1.15,2013-02-28 06:39:00,
2013-02-28 00:45:00,30.6,26.1,29.89,NNE,25,10.0,15.0,83,0.00,,,0.00,Wunderground v.1.15,2013-02-28 06:45:00,
2013-02-28 00:51:00,30.6,26.1,29.90,NNE,19,9.0,15.0,83,0.00,,,0.00,Wunderground v.1.15,2013-02-28 06:51:00,
2013-02-28 00:57:00,30.6,26.1,29.90,NNE,17,9.0,15.0,83,0.00,,,0.00,Wunderground v.1.15,2013-02-28 06:57:00,
2013-02-28 01:02:00,30.6,26.1,29.90,NE,35,10.0,10.0,83,0.00,,,0.00,Wunderground v.1.15,2013-02-28 07:02:00,
2013-02-28 01:08:00,30.6,25.8,29.90,NNE,24,10.0,13.0,82,0.00,,,0.00,Wunderground v.1.15,2013-02-28 07:08:00,
2013-02-28 01:14:00,30.6,25.8,29.90,NE,34,10.0,13.0,82,0.00,,,0.00,Wunderground v.1.15,2013-02-28 07:14:00,
2013-02-28 01:20:00,30.6,26.1,29.90,NNE,33,9.0,16.0,83,0.00,,,0.00,Wunderground v.1.15,2013-02-28 07:20:00,
2013-02-28 01:25:00,30.5,26.0,29.91,NNE,17,9.0,10.0,83,0.00,,,0.00,Wunderground v.1.15,2013-02-28 07:25:00,
2013-02-28 01:31:00,30.5,25.7,29.91,North,5,9.0,14.0,82,0.00,,,0.00,Wunderground v.1.15,2013-02-28 07:31:00,
2013-02-28 01:36:00,30.5,26.0,29.91,NNE,28,8.0,11.0,83,0.00,,,0.00,Wunderground v.1.15,2013-02-28 07:36:00,
2013-02-28 01:42:00,30.4,25.9,29.91,NE,34,8.0,10.0,83,0.00,,,0.00,Wunderground v.1.15,2013-02-28 07:42:00,
2013-02-28 01:48:00,30.5,25.7,29.90,NNE,15,10.0,15.0,82,0.00,,,0.00,Wunderground v.1.15,2013-02-28 07:48:00,
2013-02-28 01:54:00,30.5,25.7,29.90,NE,37,9.0,10.0,82,0.00,,,0.00,Wunderground v.1.15,2013-02-28 07:54:00,
2013-02-28 02:00:00,30.5,25.7,29.90,North,5,9.0,15.0,82,0.00,,,0.00,Wunderground v.1.15,2013-02-28 08:00:00,
2013-02-28 02:06:00,30.5,25.7,29.90,North,360,8.0,11.0,82,0.00,,,0.00,Wunderground v.1.15,2013-02-28 08:06:00,
2013-02-28 02:11:00,30.6,25.5,29.90,North,360,8.0,13.0,81,0.00,,,0.00,Wunderground v.1.15,2013-02-28 08:11:00,
2013-02-28 02:17:00,30.5,25.7,29.91,North,5,9.0,11.0,82,0.00,,,0.00,Wunderground v.1.15,2013-02-28 08:17:00,
2013-02-28 02:23:00,30.5,25.4,29.91,NNE,32,7.0,11.0,81,0.00,,,0.00,Wunderground v.1.15,2013-02-28 08:23:00,
2013-02-28 02:29:00,30.6,25.5,29.91,NNE,28,8.0,13.0,81,0.00,,,0.00,Wunderground v.1.15,2013-02-28 08:29:00,
2013-02-28 02:35:00,30.6,25.5,29.91,North,5,8.0,9.0,81,0.00,,,0.00,Wunderground v.1.15,2013-02-28 08:35:00,
2013-02-28 02:41:00,30.6,25.5,29.91,NE,38,8.0,12.0,81,0.00,,,0.00,Wunderground v.1.15,2013-02-28 08:41:00,
2013-02-28 02:47:00,30.6,25.5,29.91,NNE,29,7.0,8.0,81,0.00,,,0.00,Wunderground v.1.15,2013-02-28 08:47:00,
2013-02-28 02:53:00,30.6,25.5,29.91,North,5,7.0,9.0,81,0.00,,,0.00,Wunderground v.1.15,2013-02-28 08:53:00,
2013-02-28 02:58:00,30.6,25.5,29.91,NNE,16,7.0,10.0,81,0.00,,,0.00,Wunderground v.1.15,2013-02-28 08:58:00,
2013-02-28 03:04:00,30.5,25.7,29.91,NE,56,7.0,11.0,82,0.00,,,0.00,Wunderground v.1.15,2013-02-28 09:04:00,
2013-02-28 03:10:00,30.5,25.7,29.91,NE,37,11.0,19.0,82,0.00,,,0.00,Wunderground v.1.15,2013-02-28 09:10:00,
2013-02-28 03:15:00,30.4,25.6,29.91,North,360,13.0,16.0,82,0.00,,,0.00,Wunderground v.1.15,2013-02-28 09:15:00,
2013-02-28 06:59:00,28.6,24.4,29.99,NNW,329,8.0,13.0,84,0.00,,,0.00,Wunderground v.1.15,2013-02-28 12:59:00,
2013-02-28 07:04:00,28.6,24.4,29.99,NNE,30,10.0,13.0,84,0.00,,,0.00,Wunderground v.1.15,2013-02-28 13:04:00,
2013-02-28 07:10:00,28.6,24.4,29.99,North,351,9.0,14.0,84,0.00,,,0.00,Wunderground v.1.15,2013-02-28 13:10:00,
2013-02-28 07:16:00,28.6,24.4,29.99,NNE,13,10.0,15.0,84,0.00,,,0.00,Wunderground v.1.15,2013-02-28 13:16:00,
2013-02-28 07:22:00,28.5,24.0,29.99,North,11,9.0,9.0,83,0.00,,,0.00,Wunderground v.1.15,2013-02-28 13:22:00,
2013-02-28 07:28:00,28.4,24.2,29.99,NE,37,8.0,15.0,84,0.00,,,0.00,Wunderground v.1.15,2013-02-28 13:28:00,
2013-02-28 07:33:00,28.4,23.9,29.99,NNE,28,9.0,9.0,83,0.00,,,0.00,Wunderground v.1.15,2013-02-28 13:33:00,
2013-02-28 07:39:00,28.4,23.9,30.00,North,5,10.0,15.0,83,0.00,,,0.00,Wunderground v.1.15,2013-02-28 13:39:00,
2013-02-28 07:45:00,28.3,23.8,30.00,NNE,20,10.0,14.0,83,0.00,,,0.00,Wunderground v.1.15,2013-02-28 13:45:00,
2013-02-28 07:51:00,28.3,23.5,30.00,NNE,28,10.0,14.0,82,0.00,,,0.00,Wunderground v.1.15,2013-02-28 13:51:00,
2013-02-28 07:57:00,28.3,23.5,30.00,North,355,12.0,17.0,82,0.00,,,0.00,Wunderground v.1.15,2013-02-28 13:57:00,
2013-02-28 08:02:00,28.3,23.5,30.00,NNE,19,13.0,13.0,82,0.00,,,0.00,Wunderground v.1.15,2013-02-28 14:02:00,
2013-02-28 08:08:00,28.3,23.5,30.01,NE,46,12.0,15.0,82,0.00,,,0.00,Wunderground v.1.15,2013-02-28 14:08:00,
2013-02-28 08:13:00,28.3,23.5,30.01,North,5,12.0,12.0,82,0.00,,,0.00,Wunderground v.1.15,2013-02-28 14:13:00,
2013-02-28 08:19:00,28.3,23.2,30.01,NE,40,12.0,17.0,81,0.00,,,0.00,Wunderground v.1.15,2013-02-28 14:19:00,
2013-02-28 08:25:00,28.2,23.1,30.02,NNE,25,12.0,15.0,81,0.00,,,0.00,Wunderground v.1.15,2013-02-28 14:25:00,
2013-02-28 08:31:00,28.2,23.1,30.02,NE,44,11.0,17.0,81,0.00,,,0.00,Wunderground v.1.15,2013-02-28 14:31:00,
2013-02-28 08:37:00,28.1,23.0,30.02,NNE,17,13.0,21.0,81,0.00,,,0.00,Wunderground v.1.15,2013-02-28 14:37:00,
2013-02-28 08:43:00,28.1,23.0,30.02,NNE,18,14.0,14.0,81,0.00,,,0.00,Wunderground v.1.15,2013-02-28 14:43:00,
2013-02-28 08:49:00,28.2,23.1,30.02,NE,37,12.0,18.0,81,0.00,,,0.00,Wunderground v.1.15,2013-02-28 14:49:00,
2013-02-28 08:54:00,28.2,22.8,30.02,NE,46,11.0,15.0,80,0.00,,,0.00,Wunderground v.1.15,2013-02-28 14:54:00,
2013-02-28 09:00:00,27.9,22.2,30.02,NE,40,14.0,22.0,79,0.00,,,0.00,Wunderground v.1.15,2013-02-28 15:00:00,
2013-02-28 09:06:00,28.0,22.6,30.02,North,9,16.0,17.0,80,0.00,,,0.00,Wunderground v.1.15,2013-02-28 15:06:00,
2013-02-28 09:12:00,28.1,22.7,30.02,NE,38,12.0,12.0,80,0.00,,,0.00,Wunderground v.1.15,2013-02-28 15:12:00,
2013-02-28 09:18:00,28.1,23.0,30.03,NE,38,10.0,16.0,81,0.00,,,0.00,Wunderground v.1.15,2013-02-28 15:18:00,
2013-02-28 09:24:00,27.9,22.5,30.03,NE,56,11.0,14.0,80,0.00,,,0.00,Wunderground v.1.15,2013-02-28 15:24:00,
2013-02-28 09:30:00,27.9,22.5,30.03,NNE,32,12.0,18.0,80,0.00,,,0.00,Wunderground v.1.15,2013-02-28 15:30:00,
2013-02-28 09:36:00,27.7,22.6,30.04,NNW,329,13.0,14.0,81,0.00,,,0.00,Wunderground v.1.15,2013-02-28 15:36:00,
2013-02-28 09:42:00,27.7,22.6,30.04,NE,39,11.0,11.0,81,0.00,,,0.00,Wunderground v.1.15,2013-02-28 15:42:00,
2013-02-28 09:48:00,27.7,22.6,30.04,North,5,9.0,13.0,81,0.00,,,0.00,Wunderground v.1.15,2013-02-28 15:48:00,
2013-02-28 09:53:00,27.7,22.6,30.04,NNE,30,9.0,10.0,81,0.00,,,0.00,Wunderground v.1.15,2013-02-28 15:53:00,
2013-02-28 09:59:00,27.7,22.6,30.04,NNE,26,9.0,17.0,81,0.00,,,0.00,Wunderground v.1.15,2013-02-28 15:59:00,
2013-02-28 10:04:00,27.9,22.8,30.04,NE,40,10.0,11.0,81,0.00,,,0.00,Wunderground v.1.15,2013-02-28 16:04:00,
2013-02-28 10:10:00,27.9,22.2,30.04,NNE,27,11.0,14.0,79,0.00,,,0.00,Wunderground v.1.15,2013-02-28 16:10:00,
2013-02-28 10:16:00,28.1,22.1,30.04,NNE,27,13.0,15.0,78,0.00,,,0.00,Wunderground v.1.15,2013-02-28 16:16:00,
2013-02-28 10:22:00,28.3,22.0,30.04,North,9,11.0,11.0,77,0.00,,,0.00,Wunderground v.1.15,2013-02-28 16:22:00,
2013-02-28 10:28:00,28.4,22.1,30.04,NE,37,11.0,17.0,77,0.00,,,0.00,Wunderground v.1.15,2013-02-28 16:28:00,
2013-02-28 10:34:00,28.5,22.5,30.05,NNE,28,12.0,15.0,78,0.00,,,0.00,Wunderground v.1.15,2013-02-28 16:34:00,
2013-02-28 10:40:00,28.5,22.2,30.05,NNE,26,12.0,18.0,77,0.00,,,0.00,Wunderground v.1.15,2013-02-28 16:40:00,
2013-02-28 10:46:00,28.5,22.2,30.04,ENE,66,13.0,16.0,77,0.00,,,0.00,Wunderground v.1.15,2013-02-28 16:46:00,
2013-02-28 10:51:00,28.6,22.3,30.05,NNE,28,12.0,16.0,77,0.00,,,0.00,Wunderground v.1.15,2013-02-28 16:51:00,
2013-02-28 10:57:00,28.8,22.5,30.05,North,5,12.0,13.0,77,0.00,,,0.00,Wunderground v.1.15,2013-02-28 16:57:00,
2013-02-28 11:02:00,28.9,22.6,30.05,NE,53,11.0,12.0,77,0.00,,,0.00,Wunderground v.1.15,2013-02-28 17:02:00,
2013-02-28 11:08:00,29.0,22.7,30.05,North,360,10.0,12.0,77,0.00,,,0.00,Wunderground v.1.15,2013-02-28 17:08:00,
2013-02-28 11:14:00,29.1,22.8,30.05,NE,51,10.0,15.0,77,0.00,,,0.00,Wunderground v.1.15,2013-02-28 17:14:00,
2013-02-28 11:20:00,28.7,22.4,30.05,NNE,13,13.0,15.0,77,0.00,,,0.00,Wunderground v.1.15,2013-02-28 17:20:00,
2013-02-28 11:26:00,28.8,22.8,30.06,NE,39,13.0,19.0,78,0.00,,,0.00,Wunderground v.1.15,2013-02-28 17:26:00,
2013-02-28 11:31:00,28.8,22.5,30.06,North,9,13.0,19.0,77,0.00,,,0.00,Wunderground v.1.15,2013-02-28 17:31:00,
2013-02-28 11:37:00,28.9,22.6,30.06,NE,38,13.0,15.0,77,0.00,,,0.00,Wunderground v.1.15,2013-02-28 17:37:00,
2013-02-28 11:43:00,29.0,22.7,30.06,NE,50,13.0,19.0,77,0.00,,,0.00,Wunderground v.1.15,2013-02-28 17:43:00,
2013-02-28 11:49:00,29.2,22.9,30.06,NE,36,13.0,19.0,77,0.00,,,0.00,Wunderground v.1.15,2013-02-28 17:49:00,
2013-02-28 11:54:00,29.2,22.6,30.06,NNE,19,12.0,16.0,76,0.00,,,0.00,Wunderground v.1.15,2013-02-28 17:54:00,
2013-02-28 12:00:00,29.2,22.6,30.06,NE,36,13.0,18.0,76,0.00,,,0.00,Wunderground v.1.15,2013-02-28 18:00:00,
2013-02-28 12:05:00,29.3,22.7,30.06,NNE,27,14.0,16.0,76,0.00,,,0.00,Wunderground v.1.15,2013-02-28 18:05:00,
2013-02-28 12:11:00,29.5,22.6,30.06,NE,42,13.0,16.0,75,0.00,,,0.00,Wunderground v.1.15,2013-02-28 18:11:00,
2013-02-28 12:17:00,29.5,22.6,30.06,NE,38,13.0,19.0,75,0.00,,,0.00,Wunderground v.1.15,2013-02-28 18:17:00,
2013-02-28 12:22:00,29.5,22.6,30.06,NNE,14,13.0,13.0,75,0.00,,,0.00,Wunderground v.1.15,2013-02-28 18:22:00,
2013-02-28 12:28:00,29.6,22.3,30.07,NNE,23,14.0,15.0,74,0.00,,,0.00,Wunderground v.1.15,2013-02-28 18:28:00,
2013-02-28 12:34:00,29.6,22.3,30.07,NE,51,14.0,14.0,74,0.00,,,0.00,Wunderground v.1.15,2013-02-28 18:34:00,
2013-02-28 12:39:00,29.8,22.5,30.07,NE,35,13.0,14.0,74,0.00,,,0.00,Wunderground v.1.15,2013-02-28 18:39:00,
2013-02-28 12:45:00,29.8,22.2,30.06,NNE,28,11.0,15.0,73,0.00,,,0.00,Wunderground v.1.15,2013-02-28 18:45:00,
2013-02-28 12:51:00,30.1,22.2,30.07,NE,40,11.0,15.0,72,0.00,,,0.00,Wunderground v.1.15,2013-02-28 18:51:00,
2013-02-28 12:57:00,30.4,21.8,30.06,NE,42,12.0,19.0,70,0.00,,,0.00,Wunderground v.1.15,2013-02-28 18:57:00,
2013-02-28 13:02:00,30.3,22.0,30.06,NE,41,13.0,13.0,71,0.00,,,0.00,Wunderground v.1.15,2013-02-28 19:02:00,
2013-02-28 13:08:00,30.6,22.3,30.06,NE,49,11.0,13.0,71,0.00,,,0.00,Wunderground v.1.15,2013-02-28 19:08:00,
2013-02-28 13:14:00,30.9,22.3,30.06,NNE,32,10.0,17.0,70,0.00,,,0.00,Wunderground v.1.15,2013-02-28 19:14:00,
2013-02-28 13:20:00,30.4,22.1,30.06,NNE,32,11.0,17.0,71,0.00,,,0.00,Wunderground v.1.15,2013-02-28 19:20:00,
2013-02-28 13:26:00,30.2,21.9,30.06,NNE,26,10.0,11.0,71,0.00,,,0.00,Wunderground v.1.15,2013-02-28 19:26:00,
2013-02-28 13:32:00,29.8,21.9,30.06,NE,49,12.0,16.0,72,0.00,,,0.00,Wunderground v.1.15,2013-02-28 19:32:00,
2013-02-28 13:38:00,30.1,21.8,30.06,NE,48,12.0,16.0,71,0.00,,,0.00,Wunderground v.1.15,2013-02-28 19:38:00,
2013-02-28 13:44:00,30.1,21.5,30.06,NE,45,10.0,12.0,70,0.00,,,0.00,Wunderground v.1.15,2013-02-28 19:44:00,
2013-02-28 13:50:00,30.1,21.5,30.06,NNE,26,11.0,16.0,70,0.00,,,0.00,Wunderground v.1.15,2013-02-28 19:50:00,
2013-02-28 13:56:00,30.1,21.5,30.06,NE,49,13.0,15.0,70,0.00,,,0.00,Wunderground v.1.15,2013-02-28 19:56:00,
2013-02-28 14:02:00,30.0,21.7,30.06,NE,42,12.0,14.0,71,0.00,,,0.00,Wunderground v.1.15,2013-02-28 20:02:00,
2013-02-28 14:08:00,30.0,21.7,30.06,NE,42,11.0,14.0,71,0.00,,,0.00,Wunderground v.1.15,2013-02-28 20:08:00,
2013-02-28 14:14:00,29.7,21.1,30.06,NE,36,11.0,20.0,70,0.00,,,0.00,Wunderground v.1.15,2013-02-28 20:14:00,
2013-02-28 14:19:00,29.4,20.8,30.06,NNE,25,12.0,20.0,70,0.00,,,0.00,Wunderground v.1.15,2013-02-28 20:19:00,
2013-02-28 14:25:00,29.8,20.9,30.06,North,355,10.0,12.0,69,0.00,,,0.00,Wunderground v.1.15,2013-02-28 20:25:00,
2013-02-28 14:31:00,29.8,20.9,30.07,NNW,348,9.0,15.0,69,0.00,,,0.00,Wunderground v.1.15,2013-02-28 20:31:00,
2013-02-28 14:37:00,29.7,20.4,30.07,NE,42,10.0,16.0,68,0.00,,,0.00,Wunderground v.1.15,2013-02-28 20:37:00,
2013-02-28 14:43:00,29.8,21.2,30.07,NNE,14,13.0,15.0,70,0.00,,,0.00,Wunderground v.1.15,2013-02-28 20:43:00,
2013-02-28 14:49:00,29.8,20.5,30.07,NE,34,13.0,15.0,68,0.00,,,0.00,Wunderground v.1.15,2013-02-28 20:49:00,
2013-02-28 14:55:00,29.5,19.9,30.08,ENE,62,13.0,14.0,67,0.00,,,0.00,Wunderground v.1.15,2013-02-28 20:55:00,
2013-02-28 15:01:00,29.7,20.1,30.07,NNE,23,12.0,14.0,67,0.00,,,0.00,Wunderground v.1.15,2013-02-28 21:01:00,
2013-02-28 15:07:00,30.6,20.6,30.07,NNE,30,9.0,11.0,66,0.00,,,0.00,Wunderground v.1.15,2013-02-28 21:07:00,
2013-02-28 15:13:00,30.4,20.0,30.07,NE,36,11.0,12.0,65,0.00,,,0.01,Wunderground v.1.15,2013-02-28 21:13:00,
2013-02-28 15:19:00,30.3,20.3,30.08,NE,39,12.0,14.0,66,0.00,,,0.01,Wunderground v.1.15,2013-02-28 21:19:00,
2013-02-28 15:25:00,29.6,19.3,30.08,NE,35,13.0,17.0,65,0.00,,,0.01,Wunderground v.1.15,2013-02-28 21:25:00,
2013-02-28 15:31:00,29.2,19.2,30.07,NE,46,13.0,17.0,66,0.00,,,0.01,Wunderground v.1.15,2013-02-28 21:31:00,
2013-02-28 15:37:00,29.7,19.4,30.08,North,11,11.0,14.0,65,0.00,,,0.01,Wunderground v.1.15,2013-02-28 21:37:00,
2013-02-28 15:42:00,29.7,19.4,30.08,NNE,30,10.0,11.0,65,0.00,,,0.01,Wunderground v.1.15,2013-02-28 21:42:00,
2013-02-28 15:48:00,29.4,19.4,30.08,NNE,33,11.0,15.0,66,0.00,,,0.01,Wunderground v.1.15,2013-02-28 21:48:00,
2013-02-28 15:54:00,29.3,19.0,30.09,NE,38,9.0,10.0,65,0.00,,,0.01,Wunderground v.1.15,2013-02-28 21:54:00,
2013-02-28 16:00:00,29.4,19.1,30.09,NNE,19,9.0,12.0,65,0.00,,,0.01,Wunderground v.1.15,2013-02-28 22:00:00,
2013-02-28 16:06:00,29.4,19.1,30.09,NE,37,11.0,15.0,65,0.00,,,0.01,Wunderground v.1.15,2013-02-28 22:06:00,
2013-02-28 16:12:00,29.4,19.1,30.09,NE,47,10.0,10.0,65,0.00,,,0.01,Wunderground v.1.15,2013-02-28 22:12:00,
2013-02-28 16:18:00,29.4,18.7,30.09,NE,45,10.0,12.0,64,0.00,,,0.01,Wunderground v.1.15,2013-02-28 22:18:00,
2013-02-28 16:23:00,29.2,18.9,30.09,NE,40,10.0,10.0,65,0.00,,,0.01,Wunderground v.1.15,2013-02-28 22:23:00,
2013-02-28 16:29:00,29.1,18.8,30.09,NE,41,9.0,10.0,65,0.00,,,0.01,Wunderground v.1.15,2013-02-28 22:29:00,
2013-02-28 16:35:00,29.0,19.8,30.09,NE,36,8.0,9.0,68,0.00,,,0.01,Wunderground v.1.15,2013-02-28 22:35:00,
2013-02-28 16:41:00,28.7,19.8,30.10,NE,36,9.0,13.0,69,0.00,,,0.01,Wunderground v.1.15,2013-02-28 22:41:00,
2013-02-28 16:47:00,28.5,19.6,30.10,NE,36,9.0,10.0,69,0.00,,,0.01,Wunderground v.1.15,2013-02-28 22:47:00,
2013-02-28 16:53:00,28.3,19.8,30.11,NNE,17,10.0,10.0,70,0.00,,,0.01,Wunderground v.1.15,2013-02-28 22:53:00,
2013-02-28 16:59:00,28.0,19.5,30.11,NE,35,11.0,16.0,70,0.00,,,0.01,Wunderground v.1.15,2013-02-28 22:59:00,
2013-02-28 17:05:00,27.7,19.2,30.11,NNE,21,12.0,13.0,70,0.00,,,0.01,Wunderground v.1.15,2013-02-28 23:05:00,
2013-02-28 17:10:00,27.6,18.8,30.11,North,355,11.0,14.0,69,0.00,,,0.01,Wunderground v.1.15,2013-02-28 23:10:00,
2013-02-28 17:15:00,27.5,19.0,30.11,NE,42,10.0,13.0,70,0.00,,,0.01,Wunderground v.1.15,2013-02-28 23:15:00,
2013-02-28 17:21:00,27.5,19.0,30.11,NE,34,8.0,13.0,70,0.00,,,0.01,Wunderground v.1.15,2013-02-28 23:21:00,
2013-02-28 17:27:00,27.4,18.2,30.12,NNE,30,9.0,11.0,68,0.00,,,0.01,Wunderground v.1.15,2013-02-28 23:27:00,
2013-02-28 17:33:00,27.2,18.0,30.12,NE,40,11.0,12.0,68,0.00,,,0.01,Wunderground v.1.15,2013-02-28 23:33:00,
2013-02-28 17:39:00,27.1,17.9,30.12,NE,42,10.0,12.0,68,0.00,,,0.01,Wunderground v.1.15,2013-02-28 23:39:00,
2013-02-28 17:45:00,27.0,18.2,30.12,NNE,30,9.0,11.0,69,0.00,,,0.01,Wunderground v.1.15,2013-02-28 23:45:00,
2013-02-28 17:51:00,27.0,18.2,30.12,NE,36,8.0,11.0,69,0.00,,,0.01,Wunderground v.1.15,2013-02-28 23:51:00,
2013-02-28 17:57:00,26.9,18.1,30.13,NE,44,7.0,13.0,69,0.00,,,0.01,Wunderground v.1.15,2013-02-28 23:57:00,
2013-02-28 18:02:00,26.8,18.0,30.13,NE,46,8.0,11.0,69,0.00,,,0.01,Wunderground v.1.15,2013-03-01 00:02:00,
2013-02-28 18:08:00,26.7,17.9,30.13,ENE,58,9.0,12.0,69,0.00,,,0.01,Wunderground v.1.15,2013-03-01 00:08:00,
2013-02-28 18:14:00,26.7,17.9,30.13,NE,36,10.0,13.0,69,0.00,,,0.01,Wunderground v.1.15,2013-03-01 00:14:00,
2013-02-28 18:20:00,26.6,18.1,30.13,NE,42,8.0,13.0,70,0.00,,,0.01,Wunderground v.1.15,2013-03-01 00:20:00,
2013-02-28 18:25:00,26.6,18.1,30.13,NE,46,7.0,10.0,70,0.00,,,0.01,Wunderground v.1.15,2013-03-01 00:25:00,
2013-02-28 18:31:00,26.6,18.1,30.14,NE,42,9.0,12.0,70,0.00,,,0.01,Wunderground v.1.15,2013-03-01 00:31:00,
2013-02-28 18:37:00,26.5,17.7,30.14,NE,41,12.0,17.0,69,0.00,,,0.01,Wunderground v.1.15,2013-03-01 00:37:00,
2013-02-28 18:43:00,26.1,17.6,30.14,NNE,19,15.0,15.0,70,0.00,,,0.01,Wunderground v.1.15,2013-03-01 00:43:00,
2013-02-28 18:49:00,26.0,17.6,30.14,NE,46,15.0,19.0,70,0.00,,,0.01,Wunderground v.1.15,2013-03-01 00:49:00,
2013-02-28 18:54:00,25.8,17.4,30.14,ENE,63,13.0,15.0,70,0.00,,,0.01,Wunderground v.1.15,2013-03-01 00:54:00,
2013-02-28 19:00:00,25.6,17.2,30.15,NE,44,11.0,17.0,70,0.00,,,0.01,Wunderground v.1.15,2013-03-01 01:00:00,
2013-02-28 19:06:00,25.4,17.3,30.15,NE,45,12.0,15.0,71,0.00,,,0.01,Wunderground v.1.15,2013-03-01 01:06:00,
2013-02-28 19:12:00,25.3,17.2,30.15,NE,40,12.0,12.0,71,0.00,,,0.01,Wunderground v.1.15,2013-03-01 01:12:00,
2013-02-28 19:17:00,25.2,17.1,30.15,NE,38,11.0,16.0,71,0.00,,,0.01,Wunderground v.1.15,2013-03-01 01:17:00,
2013-02-28 19:23:00,25.0,16.9,30.15,NNE,32,10.0,14.0,71,0.00,,,0.01,Wunderground v.1.15,2013-03-01 01:23:00,
2013-02-28 19:29:00,24.9,16.8,30.16,NE,49,13.0,18.0,71,0.00,,,0.01,Wunderground v.1.15,2013-03-01 01:29:00,
2013-02-28 19:35:00,24.8,16.7,30.16,NE,42,14.0,15.0,71,0.00,,,0.01,Wunderground v.1.15,2013-03-01 01:35:00,
2013-02-28 19:41:00,24.5,16.4,30.16,NE,36,13.0,16.0,71,0.00,,,0.01,Wunderground v.1.15,2013-03-01 01:41:00,
2013-02-28 19:47:00,24.3,16.6,30.16,NNE,24,14.0,19.0,72,0.00,,,0.01,Wunderground v.1.15,2013-03-01 01:47:00,
2013-02-28 19:53:00,24.2,16.5,30.16,NE,42,14.0,19.0,72,0.00,,,0.01,Wunderground v.1.15,2013-03-01 01:53:00,
2013-02-28 19:59:00,24.1,16.4,30.16,NNE,23,14.0,21.0,72,0.00,,,0.01,Wunderground v.1.15,2013-03-01 01:59:00,
2013-02-28 20:04:00,24.0,16.6,30.16,NE,35,14.0,18.0,73,0.00,,,0.01,Wunderground v.1.15,2013-03-01 02:04:00,
2013-02-28 20:10:00,23.9,16.5,30.16,NNE,28,12.0,18.0,73,0.00,,,0.01,Wunderground v.1.15,2013-03-01 02:10:00,
2013-02-28 20:16:00,23.8,16.1,30.17,NNE,30,12.0,19.0,72,0.00,,,0.01,Wunderground v.1.15,2013-03-01 02:16:00,
2013-02-28 20:22:00,23.6,16.2,30.17,NE,37,13.0,17.0,73,0.00,,,0.01,Wunderground v.1.15,2013-03-01 02:22:00,
2013-02-28 20:28:00,23.5,16.1,30.17,NE,46,13.0,17.0,73,0.00,,,0.01,Wunderground v.1.15,2013-03-01 02:28:00,
2013-02-28 20:33:00,23.4,16.0,30.17,NE,46,12.0,14.0,73,0.00,,,0.01,Wunderground v.1.15,2013-03-01 02:33:00,
2013-02-28 20:39:00,23.3,15.9,30.17,NE,54,12.0,16.0,73,0.00,,,0.01,Wunderground v.1.15,2013-03-01 02:39:00,
2013-02-28 20:45:00,23.3,16.2,30.18,NE,34,14.0,21.0,74,0.00,,,0.01,Wunderground v.1.15,2013-03-01 02:45:00,
2013-02-28 20:51:00,23.1,16.0,30.18,NE,46,13.0,21.0,74,0.00,,,0.01,Wunderground v.1.15,2013-03-01 02:51:00,
2013-02-28 20:57:00,23.1,16.0,30.18,NE,46,11.0,13.0,74,0.00,,,0.01,Wunderground v.1.15,2013-03-01 02:57:00,
2013-02-28 21:02:00,23.1,16.0,30.18,NE,47,10.0,10.0,74,0.00,,,0.01,Wunderground v.1.15,2013-03-01 03:02:00,
2013-02-28 21:08:00,23.0,15.9,30.19,NE,36,9.0,13.0,74,0.00,,,0.01,Wunderground v.1.15,2013-03-01 03:08:00,
2013-02-28 21:14:00,23.0,15.9,30.18,NE,47,7.0,9.0,74,0.00,,,0.01,Wunderground v.1.15,2013-03-01 03:14:00,
2013-02-28 21:19:00,23.0,16.3,30.19,ENE,63,6.0,9.0,75,0.00,,,0.01,Wunderground v.1.15,2013-03-01 03:19:00,
2013-02-28 21:25:00,22.9,16.2,30.19,NE,47,8.0,11.0,75,0.00,,,0.01,Wunderground v.1.15,2013-03-01 03:25:00,
2013-02-28 21:31:00,22.9,16.2,30.19,NE,52,8.0,11.0,75,0.00,,,0.01,Wunderground v.1.15,2013-03-01 03:31:00,
2013-02-28 21:37:00,22.7,16.0,30.19,NE,44,8.0,12.0,75,0.00,,,0.01,Wunderground v.1.15,2013-03-01 03:37:00,
2013-02-28 21:43:00,22.5,15.8,30.19,ENE,67,9.0,11.0,75,0.00,,,0.01,Wunderground v.1.15,2013-03-01 03:43:00,
2013-02-28 21:48:00,22.4,15.7,30.19,ENE,61,10.0,16.0,75,0.00,,,0.01,Wunderground v.1.15,2013-03-01 03:48:00,
2013-02-28 21:54:00,22.2,15.5,30.19,ENE,67,10.0,11.0,75,0.00,,,0.01,Wunderground v.1.15,2013-03-01 03:54:00,
2013-02-28 21:59:00,22.1,15.4,30.19,NE,56,9.0,12.0,75,0.00,,,0.01,Wunderground v.1.15,2013-03-01 03:59:00,
2013-02-28 22:04:00,22.1,15.4,30.19,NE,51,11.0,16.0,75,0.00,,,0.01,Wunderground v.1.15,2013-03-01 04:04:00,
2013-02-28 22:10:00,22.0,15.6,30.19,NE,39,12.0,17.0,76,0.00,,,0.01,Wunderground v.1.15,2013-03-01 04:10:00,
2013-02-28 22:16:00,22.0,15.3,30.19,NNE,19,11.0,14.0,75,0.00,,,0.01,Wunderground v.1.15,2013-03-01 04:16:00,
2013-02-28 22:22:00,21.9,15.5,30.19,NE,44,11.0,18.0,76,0.00,,,0.01,Wunderground v.1.15,2013-03-01 04:22:00,
2013-02-28 22:28:00,21.9,15.5,30.19,NE,55,13.0,18.0,76,0.00,,,0.01,Wunderground v.1.15,2013-03-01 04:28:00,
2013-02-28 22:34:00,21.9,15.5,30.20,NE,35,14.0,15.0,76,0.00,,,0.01,Wunderground v.1.15,2013-03-01 04:34:00,
2013-02-28 22:40:00,21.9,15.5,30.20,ENE,67,12.0,15.0,76,0.00,,,0.01,Wunderground v.1.15,2013-03-01 04:40:00,
2013-02-28 22:46:00,21.8,15.4,30.20,NNE,32,10.0,12.0,76,0.00,,,0.01,Wunderground v.1.15,2013-03-01 04:46:00,
2013-02-28 22:52:00,21.8,15.4,30.20,ENE,59,8.0,13.0,76,0.00,,,0.01,Wunderground v.1.15,2013-03-01 04:52:00,
2013-02-28 22:58:00,21.8,15.4,30.20,ENE,57,9.0,13.0,76,0.00,,,0.01,Wunderground v.1.15,2013-03-01 04:58:00,
2013-02-28 23:00:00,21.8,15.7,30.20,NE,46,9.0,13.0,77,0.00,,,0.01,Wunderground v.1.15,2013-03-01 05:00:00,
2013-02-28 23:01:00,21.8,15.7,30.20,NNE,32,9.0,13.0,77,0.00,,,0.01,Wunderground v.1.15,2013-03-01 05:01:00,
2013-02-28 23:02:00,21.8,15.7,30.20,NE,37,9.0,9.0,77,0.00,,,0.01,Wunderground v.1.15,2013-03-01 05:02:00,
2013-02-28 23:03:00,21.8,15.7,30.20,NE,44,9.0,9.0,77,0.00,,,0.01,Wunderground v.1.15,2013-03-01 05:03:00,
2013-02-28 23:07:00,21.8,15.7,30.20,NNE,28,8.0,12.0,77,0.00,,,0.01,Wunderground v.1.15,2013-03-01 05:07:00,
2013-02-28 23:12:00,21.7,15.6,30.20,NE,46,9.0,9.0,77,0.00,,,0.01,Wunderground v.1.15,2013-03-01 05:12:00,
2013-02-28 23:17:00,21.8,15.7,30.20,NE,42,9.0,11.0,77,0.00,,,0.01,Wunderground v.1.15,2013-03-01 05:17:00,
2013-02-28 23:23:00,21.7,15.6,30.20,ENE,65,8.0,8.0,77,0.00,,,0.01,Wunderground v.1.15,2013-03-01 05:23:00,
2013-02-28 23:29:00,21.7,15.6,30.20,NNE,33,8.0,10.0,77,0.00,,,0.01,Wunderground v.1.15,2013-03-01 05:29:00,
2013-02-28 23:35:00,21.7,15.6,30.20,NE,41,7.0,9.0,77,0.00,,,0.01,Wunderground v.1.15,2013-03-01 05:35:00,
2013-02-28 23:41:00,21.7,15.6,30.20,NE,41,7.0,11.0,77,0.00,,,0.01,Wunderground v.1.15,2013-03-01 05:41:00,
2013-02-28 23:47:00,21.7,15.9,30.20,NE,41,8.0,10.0,78,0.00,,,0.01,Wunderground v.1.15,2013-03-01 05:47:00,
2013-02-28 23:52:00,21.6,15.8,30.20,NE,35,8.0,8.0,78,0.00,,,0.01,Wunderground v.1.15,2013-03-01 05:52:00,
2013-02-28 23:58:00,21.6,15.8,30.20,NE,42,7.0,8.0,78,0.00,,,0.01,Wunderground v.1.15,2013-03-01 05:58:00,